• In Uzbekistan
  • List of Countries
  • For 7 days
  • Water Temperature
  • Weather Map
  • Weather Widgets
  • user-avatar
    Login

    Hourly Weather Kalgoorlie

    Today, 29 March, Sunday

    Time Temperature Precipitation Wind Pressure Humidity
    00:00 +20°C° 0 mm 4 mps 729 mmHg 47%
    01:00 +19°C° 0 mm 4 mps 729 mmHg 54%
    02:00 +17°C° 0 mm 5 mps 729 mmHg 62%
    03:00 +17°C° 0 mm 5 mps 729 mmHg 64%
    04:00 +17°C° 0 mm 4 mps 729 mmHg 66%
    05:00 +17°C° 0 mm 4 mps 729 mmHg 68%
    06:00 +17°C° 0 mm 4 mps 730 mmHg 66%
    07:00 +18°C° 0 mm 4 mps 730 mmHg 64%
    08:00 +18°C° 0 mm 4 mps 730 mmHg 64%
    09:00 +19°C° 0 mm 3 mps 730 mmHg 58%
    10:00 +21°C° 0 mm 2 mps 731 mmHg 53%
    11:00 +23°C° 0 mm 2 mps 731 mmHg 47%
    12:00 +24°C° 0 mm 1 mps 730 mmHg 42%
    13:00 +25°C° 0 mm 1 mps 729 mmHg 37%
    14:00 +26°C° 0 mm 1 mps 729 mmHg 31%
    15:00 +27°C° 0 mm 1 mps 729 mmHg 30%
    16:00 +27°C° 0 mm 1 mps 729 mmHg 28%
    17:00 +27°C° 0 mm 1 mps 729 mmHg 27%
    18:00 +26°C° 0 mm 1 mps 730 mmHg 29%
    19:00 +25°C° 0 mm 2 mps 730 mmHg 31%
    20:00 +24°C° 0 mm 2 mps 730 mmHg 33%
    21:00 +24°C° 0 mm 3 mps 730 mmHg 35%
    22:00 +22°C° 0 mm 3 mps 730 mmHg 37%
    23:00 +21°C° 0 mm 4 mps 731 mmHg 39%

    Tomorrow, 30 March, Monday

    Time Temperature Precipitation Wind Pressure Humidity
    00:00 +20°C° 0 mm 5 mps 730 mmHg 41%
    01:00 +19°C° 0 mm 5 mps 730 mmHg 43%
    02:00 +17°C° 0 mm 5 mps 730 mmHg 45%
    03:00 +16°C° 0 mm 5 mps 730 mmHg 53%
    04:00 +16°C° 0 mm 5 mps 730 mmHg 61%
    05:00 +15°C° 0 mm 4 mps 730 mmHg 69%
    06:00 +17°C° 0 mm 4 mps 731 mmHg 67%
    07:00 +16°C° 0 mm 5 mps 731 mmHg 65%
    08:00 +17°C° 0 mm 5 mps 731 mmHg 64%
    09:00 +20°C° 0 mm 4 mps 731 mmHg 55%
    10:00 +23°C° 0 mm 4 mps 731 mmHg 45%
    11:00 +26°C° 0 mm 4 mps 731 mmHg 36%
    12:00 +27°C° 0 mm 3 mps 730 mmHg 33%
    13:00 +28°C° 0 mm 2 mps 730 mmHg 29%
    14:00 +29°C° 0 mm 2 mps 729 mmHg 26%
    15:00 +29°C° 0 mm 2 mps 729 mmHg 25%
    16:00 +29°C° 0 mm 2 mps 729 mmHg 24%
    17:00 +30°C° 0 mm 2 mps 728 mmHg 23%
    18:00 +28°C° 0 mm 3 mps 728 mmHg 25%
    19:00 +27°C° 0 mm 4 mps 728 mmHg 28%
    20:00 +26°C° 0 mm 5 mps 728 mmHg 30%
    21:00 +24°C° 0 mm 6 mps 728 mmHg 32%
    22:00 +24°C° 0 mm 6 mps 728 mmHg 33%
    23:00 +24°C° 0 mm 6 mps 728 mmHg 35%

    Day after tomorrow, 31 March, Tuesday

    Time Temperature Precipitation Wind Pressure Humidity
    00:00 +21°C° 1.5 mm 7 mps 728 mmHg 48%
    01:00 +18°C° 1.5 mm 8 mps 728 mmHg 60%
    02:00 +16°C° 1.5 mm 9 mps 728 mmHg 73%
    03:00 +16°C° 1 mm 8 mps 729 mmHg 75%
    04:00 +16°C° 1 mm 8 mps 729 mmHg 78%
    05:00 +16°C° 1 mm 7 mps 730 mmHg 80%
    06:00 +16°C° 0.7 mm 7 mps 730 mmHg 77%
    07:00 +17°C° 0.7 mm 8 mps 730 mmHg 74%
    08:00 +17°C° 0.7 mm 8 mps 730 mmHg 71%
    09:00 +20°C° 0 mm 7 mps 730 mmHg 65%
    10:00 +22°C° 0 mm 6 mps 730 mmHg 58%
    11:00 +23°C° 0 mm 5 mps 730 mmHg 51%
    12:00 +25°C° 0 mm 5 mps 729 mmHg 48%
    13:00 +26°C° 0 mm 4 mps 729 mmHg 45%
    14:00 +26°C° 0 mm 4 mps 728 mmHg 43%
    15:00 +26°C° 0 mm 4 mps 728 mmHg 42%
    16:00 +26°C° 0 mm 4 mps 728 mmHg 42%
    17:00 +26°C° 0 mm 4 mps 728 mmHg 41%
    18:00 +25°C° 0 mm 5 mps 729 mmHg 46%
    19:00 +23°C° 0 mm 5 mps 729 mmHg 51%
    20:00 +22°C° 0 mm 6 mps 729 mmHg 56%
    21:00 +22°C° 0 mm 6 mps 730 mmHg 59%
    22:00 +21°C° 0 mm 5 mps 730 mmHg 62%
    23:00 +20°C° 0 mm 5 mps 730 mmHg 65%

    1 April, Wednesday

    Time Temperature Precipitation Wind Pressure Humidity
    00:00 +20°C° 0 mm 5 mps 730 mmHg 67%
    01:00 +19°C° 0 mm 4 mps 730 mmHg 69%
    02:00 +19°C° 0 mm 4 mps 729 mmHg 70%
    03:00 +18°C° 0 mm 4 mps 729 mmHg 71%
    04:00 +18°C° 0 mm 4 mps 729 mmHg 71%
    05:00 +17°C° 0 mm 4 mps 729 mmHg 72%
    06:00 +17°C° 0 mm 5 mps 730 mmHg 66%
    07:00 +17°C° 0 mm 6 mps 730 mmHg 60%
    08:00 +17°C° 0 mm 6 mps 730 mmHg 54%
    09:00 +20°C° 0 mm 6 mps 730 mmHg 49%
    10:00 +21°C° 0 mm 6 mps 730 mmHg 44%
    11:00 +23°C° 0 mm 7 mps 730 mmHg 40%
    12:00 +24°C° 0 mm 6 mps 729 mmHg 37%
    13:00 +24°C° 0 mm 6 mps 729 mmHg 35%
    14:00 +26°C° 0 mm 5 mps 728 mmHg 33%
    15:00 +26°C° 0 mm 5 mps 728 mmHg 33%
    16:00 +26°C° 0 mm 4 mps 728 mmHg 33%
    17:00 +26°C° 0 mm 4 mps 728 mmHg 33%
    18:00 +25°C° 0 mm 4 mps 728 mmHg 35%
    19:00 +23°C° 0 mm 4 mps 728 mmHg 38%
    20:00 +23°C° 0 mm 4 mps 728 mmHg 40%
    21:00 +22°C° 0 mm 4 mps 728 mmHg 42%
    22:00 +22°C° 0 mm 4 mps 728 mmHg 44%
    23:00 +21°C° 0 mm 4 mps 728 mmHg 45%

    2 April, Thursday

    Time Temperature Precipitation Wind Pressure Humidity
    00:00 +21°C° 0 mm 4 mps 727 mmHg 48%
    01:00 +20°C° 0 mm 4 mps 727 mmHg 50%
    02:00 +20°C° 0 mm 4 mps 726 mmHg 52%
    03:00 +20°C° 0 mm 4 mps 726 mmHg 52%
    04:00 +19°C° 0 mm 4 mps 726 mmHg 53%
    05:00 +19°C° 0 mm 4 mps 726 mmHg 53%
    06:00 +20°C° 0 mm 5 mps 726 mmHg 50%
    07:00 +21°C° 0 mm 6 mps 726 mmHg 47%
    08:00 +21°C° 0 mm 6 mps 726 mmHg 45%
    09:00 +24°C° 0 mm 7 mps 726 mmHg 40%
    10:00 +27°C° 0 mm 7 mps 726 mmHg 36%
    11:00 +29°C° 0 mm 7 mps 726 mmHg 31%
    12:00 +31°C° 0 mm 8 mps 725 mmHg 29%
    13:00 +32°C° 0 mm 8 mps 724 mmHg 28%
    14:00 +33°C° 0 mm 8 mps 724 mmHg 26%
    15:00 +32°C° 0 mm 8 mps 724 mmHg 27%
    16:00 +31°C° 0 mm 9 mps 723 mmHg 29%
    17:00 +29°C° 0 mm 9 mps 723 mmHg 31%
    18:00 +28°C° 0 mm 8 mps 724 mmHg 33%
    19:00 +26°C° 0 mm 8 mps 725 mmHg 36%
    20:00 +24°C° 0 mm 7 mps 725 mmHg 39%
    21:00 +23°C° 0 mm 7 mps 726 mmHg 47%
    22:00 +21°C° 0 mm 7 mps 726 mmHg 54%
    23:00 +20°C° 0 mm 7 mps 726 mmHg 62%

    3 April, Friday

    Time Temperature Precipitation Wind Pressure Humidity
    00:00 +18°C° 0 mm 7 mps 726 mmHg 63%
    01:00 +17°C° 0 mm 6 mps 726 mmHg 64%
    02:00 +16°C° 0 mm 6 mps 727 mmHg 66%
    03:00 +16°C° 0 mm 6 mps 727 mmHg 68%
    04:00 +15°C° 0 mm 5 mps 727 mmHg 70%
    05:00 +15°C° 0 mm 5 mps 728 mmHg 73%
    06:00 +15°C° 0 mm 5 mps 728 mmHg 71%
    07:00 +15°C° 0 mm 5 mps 729 mmHg 69%
    08:00 +15°C° 0 mm 5 mps 729 mmHg 67%
    09:00 +16°C° 0 mm 5 mps 729 mmHg 61%
    10:00 +18°C° 0 mm 4 mps 730 mmHg 55%
    11:00 +19°C° 0 mm 4 mps 730 mmHg 49%
    12:00 +20°C° 0 mm 4 mps 729 mmHg 43%
    13:00 +21°C° 0 mm 4 mps 729 mmHg 36%
    14:00 +22°C° 0 mm 4 mps 729 mmHg 30%
    15:00 +22°C° 0 mm 4 mps 729 mmHg 29%
    16:00 +22°C° 0 mm 4 mps 729 mmHg 27%
    17:00 +22°C° 0 mm 4 mps 729 mmHg 26%
    18:00 +21°C° 0 mm 5 mps 729 mmHg 30%
    19:00 +20°C° 0 mm 5 mps 730 mmHg 35%
    20:00 +19°C° 0 mm 5 mps 730 mmHg 39%
    21:00 +17°C° 0 mm 6 mps 730 mmHg 44%
    22:00 +16°C° 0 mm 6 mps 731 mmHg 49%
    23:00 +15°C° 0 mm 7 mps 731 mmHg 54%
    Show more